Location: Emporia
(38.4040°N, 96.1810°W)
Time: 14:41:44
(UTC-05:00)

Amateur Radio Satellites - All Passes

Search period start: 30 June 2015 14:11
Search period end: 01 July 2015 14:11
Location: Emporia, 38.4040°N, 96.1810°W

Satellite Date Start Highest point End Downlink Frequencies (MHz)
Time Altitude Azimuth
AO-7 30 Jun 14:14:51 14:17:42 13° 49° (NE) 14:21:04 29.400- 29.500
TISAT 1 30 Jun 14:15:18 14:19:27 61° 286° (WNW) 14:23:33 437.305
Gurwin Techsat 1B 30 Jun 14:17:20 14:21:57 32° 69° (ENE) 14:26:40 435.225
SWISSCUBE 30 Jun 14:22:39 14:26:34 25° 94° (E) 14:30:33 437.505
VERMONT LUNAR 30 Jun 14:22:43 14:25:54 73° 200° (SSW) 14:29:06 437.305
ITUPSAT 1 30 Jun 14:25:42 14:29:34 24° 94° (E) 14:33:32 437.325
Oscar 19 30 Jun 14:48:54 14:53:38 36° 263° (W) 14:58:20 437.125/150
JAS-2 30 Jun 14:49:38 14:52:21 15° 63° (ENE) 14:55:21 435.910
ITAMSAT 1 30 Jun 14:49:38 14:54:47 64° 74° (ENE) 14:59:58 435.822/435.867
SPROUT 30 Jun 14:52:13 14:55:01 17° 292° (WNW) 14:57:39 437.525
PHONESAT 2.4 30 Jun 15:11:50 15:15:19 73° 11° (N) 15:18:49 2401.200-2431.200
ISS 30 Jun 15:12:07 15:13:21 12° 16° (NNE) 15:14:39 145.825
YUBILEINY 30 Jun 15:42:59 15:51:45 73° 81° (E) 16:00:32 435.215
BEESAT 30 Jun 15:44:59 15:49:38 48° 287° (WNW) 15:54:13 436.000
Gurwin Techsat 1B 30 Jun 15:57:18 16:01:56 30° 265° (W) 16:06:32 435.225
SWISSCUBE 30 Jun 16:00:11 16:04:27 31° 290° (WNW) 16:08:38 437.505
Cosmos 2491 30 Jun 16:00:11 16:08:32 51° 90° (E) 16:16:58 435.465 / 435.565
VERMONT LUNAR 30 Jun 16:00:25 16:02:33 16° 212° (SSW) 16:04:37 437.305
AO-7 30 Jun 16:00:52 16:08:58 60° 68° (ENE) 16:17:10 29.400- 29.500
RS-15 30 Jun 16:02:18 16:07:16 13° 261° (W) 16:10:58 29.354- 29.394
STARS 30 Jun 16:02:44 16:06:21 26° 95° (E) 16:10:03 437.465
ITUPSAT 1 30 Jun 16:03:12 16:07:32 33° 290° (WNW) 16:11:46 437.325
JAS-2 30 Jun 16:31:54 16:37:02 60° 259° (W) 16:42:14 435.910
ITAMSAT 1 30 Jun 16:31:56 16:34:49 14° 271° (W) 16:37:25 435.822/435.867
HORYU 2 30 Jun 16:31:57 16:36:22 82° 257° (WSW) 16:40:48 437.375
KKS-1 30 Jun 16:35:11 16:39:38 79° 285° (WNW) 16:44:02 437.445
ISS 30 Jun 16:47:16 16:50:25 47° 35° (NE) 16:53:33 145.825
AIST 1 30 Jun 16:48:08 16:52:28 66° 95° (E) 16:56:51
PHONESAT 2.4 30 Jun 16:50:00 16:53:14 35° 206° (SSW) 16:56:29 2401.200-2431.200
Cosmos 2504 30 Jun 17:06:31 17:12:43 27° 70° (ENE) 17:19:28 435.465 / 435.565
BEESAT 3 30 Jun 17:13:48 17:16:59 22° 48° (NE) 17:20:11 437.485
BEESAT 2 30 Jun 17:19:42 17:22:45 20° 48° (NE) 17:25:51 435.950
PCSat 30 Jun 17:20:39 17:26:03 77° 116° (ESE) 17:31:29 145.827
Cubesat XI-IV 30 Jun 17:27:41 17:30:01 13° 62° (ENE) 17:32:38 437.490
SO-50 30 Jun 17:37:43 17:41:13 22° 111° (ESE) 17:44:57 436.795
STARS 30 Jun 17:39:06 17:42:45 26° 290° (WNW) 17:46:19 437.465
YUBILEINY 30 Jun 17:41:26 17:47:50 22° 278° (W) 17:53:49 435.215
AO-7 30 Jun 17:55:11 18:02:16 29° 266° (W) 18:09:08 29.400- 29.500
MOZHAYETS 4 30 Jun 17:56:39 18:01:19 77° 102° (ESE) 18:05:58
O/OREOS (USA 219) 30 Jun 17:57:16 18:00:22 18° 57° (ENE) 18:03:37 437.305
Cosmos 2491 30 Jun 17:57:52 18:05:45 34° 290° (WNW) 18:13:26 435.465 / 435.565
AIST 2 30 Jun 18:08:57 18:11:51 18° 46° (NE) 18:14:48 435.215
ISS 30 Jun 18:24:30 18:26:34 16° 229° (SW) 18:28:33 145.825
CUTE-I 30 Jun 18:31:33 18:36:42 51° 72° (ENE) 18:41:56 437.470
BEESAT 3 30 Jun 18:51:22 18:55:01 32° 246° (WSW) 18:58:33 437.485
BEESAT 2 30 Jun 18:57:11 19:00:57 36° 245° (WSW) 19:04:37 435.950
Cosmos 2504 30 Jun 18:59:04 19:06:31 56° 268° (W) 19:14:27 435.465 / 435.565
Cubesat XI-IV 30 Jun 19:04:09 19:09:31 79° 257° (WSW) 19:14:56 437.490
PCSat 30 Jun 19:06:37 19:10:09 17° 315° (NW) 19:13:31 145.827
HO-68 30 Jun 19:13:29 19:15:42 12° 54° (NE) 19:18:20 435.675
SO-50 30 Jun 19:17:01 19:21:30 42° 307° (NW) 19:26:08 436.795
O/OREOS (USA 219) 30 Jun 19:35:46 19:40:02 41° 254° (WSW) 19:44:17 437.305
MOZHAYETS 4 30 Jun 19:36:48 19:37:59 11° 296° (WNW) 19:38:52
AIST 2 30 Jun 19:46:40 19:50:41 45° 244° (WSW) 19:54:36 435.215
CUBESAT XI-V 30 Jun 19:48:06 19:52:49 86° 283° (WNW) 19:57:29 437.345
GOMX 1 30 Jun 19:48:18 19:51:52 20° 68° (ENE) 19:55:29 467.674
DANDE 30 Jun 19:48:21 19:49:56 14° 68° (ENE) 19:51:30 436.750
BRITE-PL 30 Jun 19:49:11 19:54:05 33° 71° (ENE) 19:58:52 437.365/2234.400
CANX-2 30 Jun 19:59:02 20:00:04 11° 66° (ENE) 20:01:21 2200.000
CUTE-I 30 Jun 20:13:22 20:17:09 19° 269° (W) 20:20:44 437.470
PRISM 30 Jun 20:18:10 20:22:21 61° 101° (E) 20:26:29 437.425
GONETS M04 30 Jun 20:19:01 20:26:10 29° 68° (ENE) 20:33:32
JUGNU 30 Jun 20:34:40 20:36:54 12° 180° (S) 20:39:08 437.505
CINEMA 3 30 Jun 20:34:49 20:37:09 14° 68° (ENE) 20:39:38 145.822/145.860
STRAND 1 30 Jun 20:36:04 20:41:15 89° 290° (WNW) 20:46:24 437.568
SEEDS 30 Jun 20:48:51 20:52:27 29° 71° (ENE) 20:56:06 437.485
DOVE 4 30 Jun 20:52:04 20:56:54 50° 75° (ENE) 21:01:31 437.250
HO-68 30 Jun 20:55:13 21:02:16 67° 71° (ENE) 21:09:23 435.675
Oscar 11 30 Jun 20:56:22 20:57:33 11° 65° (ENE) 20:58:57 145.826/435.025
CUSAT 1 30 Jun 20:56:41 20:58:45 19° 268° (W) 21:00:42 437.405
AUBIESAT-1 30 Jun 21:09:54 21:12:17 15° 98° (E) 21:14:57 437.475
AAUSAT CUBESAT 2 30 Jun 21:10:40 21:14:23 34° 73° (ENE) 21:18:11 437.432
UWE-3 30 Jun 21:15:50 21:17:56 14° 67° (ENE) 21:20:12 435.000/436.395/437.385
SRMSAT 30 Jun 21:19:19 21:20:47 11° 174° (S) 21:22:19 437.500
GOMX 1 30 Jun 21:24:34 21:29:44 49° 261° (W) 21:34:36 467.674
BRITE-PL 30 Jun 21:27:37 21:32:34 31° 265° (W) 21:37:16 437.365/2234.400
CUTE 1.7 + AOD 2 30 Jun 21:28:38 21:32:50 74° 259° (WSW) 21:37:03 437.475
CANX-2 30 Jun 21:31:23 21:35:32 61° 260° (W) 21:39:43 2200.000
DANDE 30 Jun 21:31:50 21:32:59 12° 272° (W) 21:33:57 436.750
Cosmos 2499 30 Jun 21:32:27 21:36:39 16° 64° (ENE) 21:41:30 435.465 / 435.565
COMPASS 1 30 Jun 21:32:34 21:36:41 77° 77° (ENE) 21:40:52 437.405
M-CUBED/EXP-1 PRIME 30 Jun 21:38:46 21:42:37 37° 103° (ESE) 21:46:46 437.505
CUBEBUG 2 30 Jun 21:49:57 21:54:04 42° 74° (ENE) 21:58:07 437.445
DELFI C3 30 Jun 21:55:46 21:59:22 34° 73° (ENE) 22:03:02 145.870
PRISM 30 Jun 21:55:56 21:57:18 11° 295° (WNW) 21:58:28 437.425
DX 1 30 Jun 22:00:30 22:02:34 14° 65° (ENE) 22:04:50 434.975-435.025
CINEMA 3 30 Jun 22:09:29 22:14:02 52° 260° (W) 22:18:23 145.822/145.860
ZACube-1 30 Jun 22:10:55 22:14:57 43° 73° (ENE) 22:18:57 437.345
GONETS M04 30 Jun 22:15:06 22:23:36 58° 268° (W) 22:31:59
STRAND 1 30 Jun 22:18:30 22:19:46 11° 299° (WNW) 22:20:44 437.568
AISAT 30 Jun 22:20:38 22:22:27 13° 65° (ENE) 22:24:29 437.250
SEEDS 30 Jun 22:25:07 22:28:17 20° 267° (W) 22:31:22 437.485
UKube-1 30 Jun 22:26:27 22:29:50 23° 69° (ENE) 22:33:21 .
50 SAT 30 Jun 22:28:49 22:30:39 13° 68° (ENE) 22:32:39 437.505
Oscar 11 30 Jun 22:28:59 22:33:14 63° 259° (W) 22:37:32 145.826/435.025
DOVE 4 30 Jun 22:31:42 22:34:55 16° 269° (W) 22:37:49 437.250
ESTCUBE 1 30 Jun 22:37:36 22:39:10 12° 64° (ENE) 22:40:58 437.505/2401.250
AUBIESAT-1 30 Jun 22:43:13 22:47:11 45° 291° (WNW) 22:51:23 437.475
HO-68 30 Jun 22:45:20 22:50:39 21° 269° (W) 22:55:40 435.675
AAUSAT CUBESAT 2 30 Jun 22:47:23 22:50:09 17° 268° (W) 22:52:47 437.432
FUNcube-1 30 Jun 22:48:47 22:53:01 67° 259° (W) 22:57:11 145.935
UWE-3 30 Jun 22:49:57 22:54:08 48° 261° (W) 22:58:15 435.000/436.395/437.385
CUBEBUG 1 30 Jun 22:51:34 22:53:46 14° 66° (ENE) 22:56:11 437.445
UNISAT 6 30 Jun 23:01:24 23:04:07 17° 92° (E) 23:07:01 437.425
HUMSAT D 30 Jun 23:04:18 23:08:25 78° 78° (ENE) 23:12:31 437.325/437.525
SRMSAT 30 Jun 23:07:07 23:09:04 12° 184° (S) 23:11:01 437.500
VELOX 1 30 Jun 23:08:44 23:12:53 39° 72° (ENE) 23:17:04 145.980
M-CUBED/EXP-1 PRIME 30 Jun 23:14:16 23:17:15 19° 295° (WNW) 23:20:16 437.505
Cosmos 2499 30 Jun 23:23:08 23:30:56 89° 82° (E) 23:39:21 435.465 / 435.565
POLYITAN 1 30 Jun 23:27:54 23:29:33 12° 90° (E) 23:31:27 437.675
CUBEBUG 2 30 Jun 23:28:24 23:31:00 15° 269° (W) 23:33:23 437.445
DUCHIFAT 1 30 Jun 23:28:31 23:29:55 12° 90° (E) 23:31:33 145.980
DELFI C3 30 Jun 23:32:03 23:34:36 16° 268° (W) 23:37:02 145.870
DX 1 30 Jun 23:34:06 23:38:23 54° 259° (W) 23:42:43 434.975-435.025
ANTELSAT 30 Jun 23:44:37 23:48:52 51° 100° (E) 23:53:13 437.575/2403.000
ZACube-1 30 Jun 23:49:15 23:51:34 14° 269° (W) 23:53:41 437.345
AISAT 30 Jun 23:54:08 23:58:35 61° 260° (W) 00:03:01 437.250
QB50P2 30 Jun 23:56:42 00:00:19 28° 96° (E) 00:03:57 145.880/145.840
POPSAT HIP 1 30 Jun 23:58:31 00:02:08 28° 96° (E) 00:05:47 437.405
TIGRISAT 30 Jun 23:58:50 00:03:10 73° 102° (ESE) 00:07:35 435.000
50 SAT 01 Jul 00:01:21 00:04:58 39° 262° (W) 00:08:35 437.505
UKube-1 01 Jul 00:02:05 00:05:52 28° 264° (W) 00:09:37 .
BUGSAT 1 01 Jul 00:02:56 00:05:49 19° 93° (E) 00:08:47 437.445
SPROUT 01 Jul 00:08:10 00:11:44 26° 70° (ENE) 00:15:21 437.525
ESTCUBE 1 01 Jul 00:11:02 00:15:31 66° 259° (W) 00:20:03 437.505/2401.250
CUBEBUG 1 01 Jul 00:25:23 00:29:44 53° 260° (W) 00:34:06 437.445
UNISAT 6 01 Jul 00:37:01 00:41:06 40° 287° (WNW) 00:45:13 437.425
QB50P1 01 Jul 00:37:35 00:41:49 85° 102° (ESE) 00:46:01 145.935-145.965
VELOX 1 01 Jul 00:46:32 00:49:38 18° 268° (W) 00:52:33 145.980
NANOSAT C BR1 01 Jul 00:53:32 00:57:42 63° 285° (WNW) 01:01:49 145.865
POLYITAN 1 01 Jul 01:01:44 01:05:48 48° 286° (WNW) 01:09:51 437.675
DUCHIFAT 1 01 Jul 01:02:01 01:06:06 51° 286° (WNW) 01:10:08 145.980
TISAT 1 01 Jul 01:05:29 01:09:44 80° 78° (ENE) 01:14:00 437.305
BEESAT 01 Jul 01:14:04 01:16:59 17° 66° (ENE) 01:20:06 436.000
Cosmos 2499 01 Jul 01:18:51 01:23:21 16° 277° (W) 01:27:27 435.465 / 435.565
ANTELSAT 01 Jul 01:22:58 01:25:18 14° 293° (WNW) 01:27:28 437.575/2403.000
SWISSCUBE 01 Jul 01:27:58 01:31:48 25° 69° (ENE) 01:35:45 437.505
ITUPSAT 1 01 Jul 01:31:19 01:35:06 25° 68° (ENE) 01:39:01 437.325
QB50P2 01 Jul 01:32:46 01:36:05 22° 291° (WNW) 01:39:18 145.880/145.840
POPSAT HIP 1 01 Jul 01:34:36 01:37:53 22° 291° (WNW) 01:41:04 437.405
BUGSAT 1 01 Jul 01:37:47 01:41:21 29° 289° (WNW) 01:44:50 437.445
SPROUT 01 Jul 01:44:10 01:47:46 25° 265° (W) 01:51:18 437.525
RS-15 01 Jul 01:58:09 02:05:25 22° 103° (ESE) 02:13:24 29.354- 29.394
PCSat 01 Jul 02:10:10 02:15:21 44° 56° (NE) 02:20:31 145.827
SO-50 01 Jul 02:10:15 02:13:29 18° 42° (NE) 02:16:51 436.795
Cosmos 2491 01 Jul 02:13:12 02:19:33 23° 65° (ENE) 02:26:15 435.465 / 435.565
Gurwin Techsat 1B 01 Jul 02:36:22 02:38:53 14° 89° (E) 02:41:43 435.225
BEESAT 01 Jul 02:49:51 02:54:28 50° 261° (W) 02:59:08 436.000
YUBILEINY 01 Jul 02:50:26 02:54:32 15° 79° (E) 02:59:16 435.215
AIST 1 01 Jul 02:58:22 03:00:40 14° 70° (ENE) 03:03:08
STARS 01 Jul 02:58:41 03:01:51 20° 68° (ENE) 03:05:08 437.465
Oscar 19 01 Jul 03:01:21 03:06:30 89° 91° (E) 03:11:39 437.125/150
ITAMSAT 1 01 Jul 03:04:39 03:08:52 25° 94° (E) 03:13:11 435.822/435.867
SWISSCUBE 01 Jul 03:05:17 03:09:33 32° 264° (W) 03:13:48 437.505
ITUPSAT 1 01 Jul 03:08:33 03:12:52 33° 264° (W) 03:17:10 437.325
KKS-1 01 Jul 03:31:33 03:36:01 78° 76° (ENE) 03:40:29 437.445
JAS-2 01 Jul 03:41:27 03:46:05 21° 92° (E) 03:51:21 435.910
SO-50 01 Jul 03:49:39 03:54:36 70° 242° (WSW) 03:59:25 436.795
PCSat 01 Jul 03:54:12 03:58:31 24° 252° (WSW) 04:02:41 145.827
RS-15 01 Jul 04:05:38 04:16:33 85° 302° (WNW) 04:27:51 29.354- 29.394
AO-7 01 Jul 04:05:40 04:11:10 20° 90° (E) 04:17:06 29.400- 29.500
Cosmos 2491 01 Jul 04:08:43 04:17:27 73° 266° (W) 04:26:05 435.465 / 435.565
Gurwin Techsat 1B 01 Jul 04:14:09 04:19:27 67° 286° (WNW) 04:24:42 435.225
HORYU 2 01 Jul 04:25:21 04:28:41 21° 94° (E) 04:32:09 437.375
STARS 01 Jul 04:34:04 04:38:06 34° 263° (W) 04:42:07 437.465
AIST 1 01 Jul 04:34:28 04:38:39 43° 267° (W) 04:42:44
YUBILEINY 01 Jul 04:41:33 04:50:15 87° 98° (E) 04:59:00 435.215
ITAMSAT 1 01 Jul 04:43:41 04:48:28 36° 290° (WNW) 04:53:11 435.822/435.867
Oscar 19 01 Jul 04:43:52 04:45:13 11° 298° (WNW) 04:46:14 437.125/150
MOZHAYETS 4 01 Jul 04:56:57 05:01:26 60° 75° (ENE) 05:05:57
JAS-2 01 Jul 05:25:08 05:31:32 67° 286° (WNW) 05:38:43 435.910
Cosmos 2504 01 Jul 05:45:21 05:50:15 21° 85° (E) 05:55:23 435.465 / 435.565
AO-7 01 Jul 05:56:33 06:04:58 80° 288° (WNW) 06:13:17 29.400- 29.500
HORYU 2 01 Jul 06:01:24 06:05:24 32° 289° (WNW) 06:09:21 437.375
Cosmos 2491 01 Jul 06:09:58 06:12:58 12° 283° (WNW) 06:15:11 435.465 / 435.565
STRAND 1 01 Jul 06:14:32 06:16:51 14° 63° (ENE) 06:19:26 437.568
RS-15 01 Jul 06:21:48 06:30:57 28° 329° (NNW) 06:40:09 29.354- 29.394
MOZHAYETS 4 01 Jul 06:37:17 06:39:09 12° 272° (W) 06:40:42
YUBILEINY 01 Jul 06:42:35 06:48:26 18° 298° (WNW) 06:53:51 435.215
CUBESAT XI-V 01 Jul 06:49:37 06:54:19 77° 76° (ENE) 06:59:03 437.345
CUTE-I 01 Jul 06:50:51 06:54:59 23° 93° (E) 06:59:14 437.470
PRISM 01 Jul 07:06:46 07:10:33 36° 72° (ENE) 07:14:24 437.425
JAS-2 01 Jul 07:14:21 07:15:53 11° 300° (WNW) 07:16:56 435.910
Cubesat XI-IV 01 Jul 07:23:08 07:28:17 47° 99° (E) 07:33:27 437.490
Cosmos 2504 01 Jul 07:35:54 07:43:07 61° 281° (W) 07:50:11 435.465 / 435.565
STRAND 1 01 Jul 07:50:22 07:55:30 73° 258° (WSW) 08:00:41 437.568
AO-7 01 Jul 07:51:24 07:56:38 18° 307° (NW) 08:01:28 29.400- 29.500
AUBIESAT-1 01 Jul 07:58:11 07:59:11 11° 62° (ENE) 08:00:20 437.475
O/OREOS (USA 219) 01 Jul 08:07:53 08:11:30 25° 104° (ESE) 08:15:13 437.305
CUSAT 1 01 Jul 08:16:22 08:22:28 33° 95° (E) 08:27:33 437.405
M-CUBED/EXP-1 PRIME 01 Jul 08:26:44 08:29:39 30° 67° (ENE) 08:32:39 437.505
HO-68 01 Jul 08:28:08 08:30:08 12° 86° (E) 08:32:45 435.675
CUTE-I 01 Jul 08:30:12 08:35:15 42° 289° (WNW) 08:40:14 437.470
VERMONT LUNAR 01 Jul 08:34:35 08:36:05 13° 146° (SSE) 08:37:41 437.305
BEESAT 3 01 Jul 08:41:50 08:45:50 62° 118° (ESE) 08:49:54 437.485
RS-15 01 Jul 08:42:10 08:48:53 17° 3° (N) 08:55:49 29.354- 29.394
PRISM 01 Jul 08:43:22 08:46:09 17° 268° (W) 08:48:48 437.425
BEESAT 2 01 Jul 08:48:42 08:52:42 57° 118° (ESE) 08:56:46 435.950
DANDE 01 Jul 08:52:39 09:00:09 52° 96° (E) 09:06:13 436.750
DOVE 4 01 Jul 08:54:49 08:56:21 12° 89° (E) 08:58:08 437.250
Cubesat XI-IV 01 Jul 09:04:02 09:08:06 22° 294° (WNW) 09:12:00 437.490
CUTE 1.7 + AOD 2 01 Jul 09:15:59 09:19:11 21° 93° (E) 09:22:29 437.475
GONETS M04 01 Jul 09:18:18 09:25:50 35° 87° (E) 09:33:33
CANX-2 01 Jul 09:18:31 09:22:02 25° 95° (E) 09:25:36 2200.000
COMPASS 1 01 Jul 09:18:57 09:21:04 14° 90° (E) 09:23:24 437.405
ISS 01 Jul 09:25:19 09:28:13 30° 134° (SE) 09:31:08 145.825
GOMX 1 01 Jul 09:28:24 09:32:33 53° 99° (E) 09:36:36 467.674
AUBIESAT-1 01 Jul 09:30:37 09:33:40 35° 257° (WSW) 09:36:46 437.475
BRITE-PL 01 Jul 09:34:03 09:38:27 73° 285° (WNW) 09:42:37 437.365/2234.400
AIST 2 01 Jul 09:42:38 09:46:46 53° 117° (ESE) 09:50:56 435.215
O/OREOS (USA 219) 01 Jul 09:47:01 09:50:52 27° 300° (WNW) 09:54:40 437.305
CUSAT 1 01 Jul 09:58:37 10:05:03 36° 283° (WNW) 10:10:07 437.405
UNISAT 6 01 Jul 10:00:22 10:02:11 13° 66° (ENE) 10:04:11 437.425
M-CUBED/EXP-1 PRIME 01 Jul 10:03:29 10:04:43 11° 264° (W) 10:05:47 437.505
CINEMA 3 01 Jul 10:05:52 10:09:42 36° 97° (E) 10:13:38 145.822/145.860
SEEDS 01 Jul 10:09:29 10:13:44 72° 101° (ESE) 10:18:00 437.485
VERMONT LUNAR 01 Jul 10:09:34 10:12:39 63° 160° (SSE) 10:15:47 437.305
HO-68 01 Jul 10:11:56 10:19:07 80° 104° (ESE) 10:26:18 435.675
Oscar 11 01 Jul 10:18:12 10:21:47 25° 95° (E) 10:25:26 145.826/435.025
BEESAT 3 01 Jul 10:21:57 10:24:14 14° 316° (NW) 10:26:23 437.485
BEESAT 2 01 Jul 10:28:40 10:31:10 15° 316° (NW) 10:33:33 435.950
AAUSAT CUBESAT 2 01 Jul 10:29:54 10:34:08 83° 101° (E) 10:38:21 437.432
DOVE 4 01 Jul 10:30:31 10:34:31 46° 286° (WNW) 10:38:29 437.250
DANDE 01 Jul 10:37:03 10:43:25 27° 286° (WNW) 10:48:34 436.750
FUNcube-1 01 Jul 10:38:55 10:42:18 24° 95° (E) 10:45:48 145.935
UWE-3 01 Jul 10:41:08 10:44:58 34° 97° (E) 10:48:52 435.000/436.395/437.385
ANTELSAT 01 Jul 10:42:25 10:46:23 37° 72° (ENE) 10:50:21 437.575/2403.000
QB50P2 01 Jul 10:48:51 10:51:45 19° 69° (ENE) 10:54:47 145.880/145.840
POPSAT HIP 1 01 Jul 10:50:31 10:53:26 19° 69° (ENE) 10:56:28 437.405
HUMSAT D 01 Jul 10:51:14 10:53:17 14° 91° (E) 10:55:33 437.325/437.525
CUTE 1.7 + AOD 2 01 Jul 10:51:22 10:55:09 30° 288° (WNW) 10:58:52 437.475
BUGSAT 1 01 Jul 10:52:47 10:54:34 13° 66° (ENE) 10:56:33 437.445
COMPASS 1 01 Jul 10:52:59 10:57:01 44° 286° (WNW) 11:01:01 437.405
CANX-2 01 Jul 10:54:20 10:57:54 26° 289° (WNW) 11:01:24 2200.000
TIGRISAT 01 Jul 10:56:13 11:00:24 51° 74° (ENE) 11:04:34 435.000
RS-15 01 Jul 10:56:29 11:06:29 33° 37° (NE) 11:17:05 29.354- 29.394
ISS 01 Jul 11:01:46 11:04:37 27° 330° (NNW) 11:07:27 145.825
GOMX 1 01 Jul 11:08:36 11:10:16 12° 295° (WNW) 11:11:41 467.674
DELFI C3 01 Jul 11:10:42 11:14:47 74° 102° (ESE) 11:18:50 145.870
PHONESAT 2.4 01 Jul 11:12:11 11:15:27 41° 155° (SSE) 11:18:44 2401.200-2431.200
GONETS M04 01 Jul 11:14:00 11:22:28 48° 285° (WNW) 11:30:50
CUBEBUG 2 01 Jul 11:18:34 11:22:43 66° 284° (WNW) 11:26:56 437.445
AIST 2 01 Jul 11:22:51 11:25:41 17° 315° (NW) 11:28:26 435.215
DX 1 01 Jul 11:24:15 11:27:58 27° 96° (E) 11:31:43 434.975-435.025
QB50P1 01 Jul 11:28:37 11:32:44 51° 74° (ENE) 11:36:52 145.935-145.965
UNISAT 6 01 Jul 11:34:20 11:38:35 53° 260° (W) 11:42:47 437.425
ZACube-1 01 Jul 11:36:43 11:40:53 68° 284° (WNW) 11:45:07 437.345
50 SAT 01 Jul 11:38:41 11:41:50 23° 95° (E) 11:45:03 437.505
CINEMA 3 01 Jul 11:44:00 11:46:43 17° 291° (WNW) 11:49:17 145.822/145.860
NANOSAT C BR1 01 Jul 11:44:08 11:48:23 77° 78° (ENE) 11:52:38 145.865
VERMONT LUNAR 01 Jul 11:46:33 11:49:39 56° 356° (N) 11:52:48 437.305
AISAT 01 Jul 11:46:43 11:50:28 27° 96° (E) 11:54:16 437.250
UKube-1 01 Jul 11:50:21 11:54:34 50° 100° (E) 11:58:47 .
DUCHIFAT 1 01 Jul 11:52:22 11:56:37 87° 256° (WSW) 12:00:53 145.980
POLYITAN 1 01 Jul 11:52:46 11:57:02 81° 258° (WSW) 12:01:17 437.675
Oscar 11 01 Jul 11:54:17 11:57:55 26° 290° (WNW) 12:01:27 145.826/435.025
Cosmos 2499 01 Jul 11:58:28 12:05:32 76° 95° (E) 12:12:37 435.465 / 435.565
HO-68 01 Jul 12:01:14 12:06:09 20° 301° (WNW) 12:10:47 435.675
ESTCUBE 1 01 Jul 12:05:36 12:09:30 28° 95° (E) 12:13:27 437.505/2401.250
FUNcube-1 01 Jul 12:15:06 12:18:36 25° 289° (WNW) 12:22:04 145.935
CUBEBUG 1 01 Jul 12:16:01 12:19:52 30° 96° (E) 12:23:43 437.445
UWE-3 01 Jul 12:18:20 12:21:18 18° 291° (WNW) 12:24:10 435.000/436.395/437.385
ANTELSAT 01 Jul 12:20:27 12:23:21 17° 268° (W) 12:26:04 437.575/2403.000
QB50P2 01 Jul 12:23:31 12:27:26 34° 263° (W) 12:31:19 145.880/145.840
POPSAT HIP 1 01 Jul 12:25:11 12:29:05 34° 263° (W) 12:32:58 437.405
HUMSAT D 01 Jul 12:25:20 12:29:17 43° 287° (WNW) 12:33:14 437.325/437.525
BUGSAT 1 01 Jul 12:25:28 12:29:38 53° 260° (W) 12:33:47 437.445
TIGRISAT 01 Jul 12:35:41 12:37:31 12° 270° (W) 12:39:05 435.000
VELOX 1 01 Jul 12:36:44 12:41:10 82° 284° (WNW) 12:45:34 145.980
Oscar 19 01 Jul 12:40:47 12:43:00 13° 63° (ENE) 12:45:29 437.125/150
PHONESAT 2.4 01 Jul 12:49:58 12:53:25 68° 351° (N) 12:56:53 2401.200-2431.200
TISAT 1 01 Jul 12:53:09 12:55:10 14° 91° (E) 12:57:23 437.305
DX 1 01 Jul 13:00:35 13:04:07 24° 291° (WNW) 13:07:33 434.975-435.025
QB50P1 01 Jul 13:07:05 13:08:57 12° 270° (W) 13:10:35 145.935-145.965
RS-15 01 Jul 13:08:41 13:20:30 84° 241° (WSW) 13:32:43 29.354- 29.394
50 SAT 01 Jul 13:13:18 13:16:23 22° 290° (WNW) 13:19:23 437.505
AISAT 01 Jul 13:23:20 13:26:58 25° 291° (WNW) 13:30:29 437.250
VERMONT LUNAR 01 Jul 13:23:35 13:26:46 80° 15° (NNE) 13:29:57 437.305
UKube-1 01 Jul 13:28:01 13:30:19 14° 294° (WNW) 13:32:26 .
SPROUT 01 Jul 13:31:23 13:35:38 62° 101° (E) 13:39:51 437.525
ESTCUBE 1 01 Jul 13:42:32 13:46:17 25° 291° (WNW) 13:49:57 437.505/2401.250
CUBEBUG 1 01 Jul 13:52:40 13:56:05 22° 291° (WNW) 13:59:22 437.445
Cosmos 2499 01 Jul 13:55:11 13:59:39 17° 296° (WNW) 14:03:45 435.465 / 435.565
Gurwin Techsat 1B 01 Jul 13:55:39 13:59:25 21° 66° (ENE) 14:03:19 435.225
